Find Intelsat IS-29e

NORAD ID: 41308 Int'l Des: 2016-004 Owner: INTELU Country: US operational
MEOCIRCULAR

Live-Position

3D-Globus wird geladen...

Über Intelsat IS-29e

Beschreibung wird geladen...

Nächste Überflüge

Passes for default location (London). Set your location on the main map for personalized predictions.

Höhenverlauf

Loading altitude history...

Zweizeiliger Elementsatz

1 41308U 16004A 26104.28574977 -.00000252 00000-0 00000+0 0 9998
2 41308 6.3396 71.0709 0000541 320.6680 194.2710 1.00628119 37635
Epoch: 14. Apr. 2026 • Age: 17 hours

Aktueller Status

Höhe 35686.1 km
Geschwindigkeit 3.08 km/s
Subsatellitenpunkt 4.97°N, 78.59°W
Startdatum 27. Jan. 2016
Alter 10.2 years
Typ communications

Technische Details

Klassifizierung Payload
Masse 6552.00 kg
Trockenmasse 2946.00 kg
Gesamtmasse 6552.00 kg
Länge 7.50 m
Durchmesser 3.00 m
Spannweite 44.00 m
Form Box + 2 panels
Hersteller BOES
Bus-Typ BSS-702MP
Phasenstatus In Orbit
Besitzer/Staat INTELU/US

Most Searched